Weather in Minkovci

Ukraine / Khmelnitsky District     48°51′14″N   27°06′26″E
temp.,
°C
wind,
m/s
gust,
m/s
humid.,
%
clouds,
%
prec.,
mm/h
press.,
hPa
HPBL,
m
9 may, sun
sun900:00+3wnw38852 0.0 1022145
03:00+2wnw35910 0.0 102395
06:00+2wnw23915 0.0 102553
09:00+8nw35663 0.0 1026515
12:00+12nw354640 0.0 10251892
15:00+15wnw344095 0.0 10252300
18:00+15w12405 0.0 10241870
21:00+10sse22545 0.0 102511
10 may, mon
mon1000:00+8se22595 0.0 102617
03:00+6se226525 0.0 102626
06:00+5ese22685 0.0 102627
09:00+12se595655 0.0 1026455
12:00+16se78475 0.0 10251290
15:00+18se67468 0.0 10241491
18:00+17se565416 0.0 10231386
21:00+11ese4107368 0.0 1023179
11 may, tue
tue1100:00+9e410776 0.0 1024165
03:00+8ese410750 0.0 1023184
06:00+6e49790 0.0 1023153
09:00+12ese57620 0.0 1023420
12:00+16ese55440 0.0 10211124
15:00+18ese45390 0.0 10191368
18:00+17e46500 0.0 10181214
21:00+12e49835 0.0 1017161
12 may, wed
wed1200:00+10e359249 0.0 101793
03:00+9e489779 0.0 1016201
06:00+9e599311 0.0 1015392
09:00+11e68710 0.0 1014717
12:00+14e56557 0.0 10131331
15:00+15e655289 0.0 10121616
18:00+13e6659100 0.0 1011937
21:00+8ese487529 0.0 1011158
13 may, thu
thu1300:00+9ese4107295 0.0 1009349
03:00+8ese51194100 2.3 1008360
06:00+9se71492100 0.9 1006569
09:00+12sse91482100 0.9 1005972
12:00+11sse71389100 0.8 10051074
15:00+11sse71387100 0.9 1005753
18:00+12ssw5991100 0.3 1005471
21:00+11s3596100 1.4 1006152